[[{"header":{"parameterUnit":"m.s-1","parameterCategory":1,"la1":30.2991,"la2":30.254,"lo1":-89.0895,"lo2":-89.0444,"dy":0.0017,"dx":0.0017,"nx":28,"ny":28,"refTime":"2023-10-17T09:00:00:Z","depth":0,"parameterNumber":2,"parameterNumberName":"U-component_of_WINDS"},"data":[0,0,0,0,0,0,0,0,0,0,0,0,0,0,0,0,0,0,0,0,0,0,0,0,0,0,0,0,0,0,0,0,0,0,0,0,0,0,0,0,0,0,0,0,0,0,0,0,0,0,0,0,0,0,0,0,0,0,-2.6329,-2.6328,0,-2.6302,-2.6302,-2.6301,-2.6231,-2.623,-2.6228,-2.6227,-2.6201,-2.6201,-2.6202,0,0,0,0,0,0,0,0,0,0,0,0,0,-2.6322,-2.6322,-2.6329,-2.6328,-2.6328,-2.6302,-2.6302,-2.6301,-2.6232,-2.623,-2.6228,-2.6226,-2.62,-2.6201,-2.6202,0,0,0,0,0,0,0,0,0,0,0,0,0,-2.6313,-2.6322,-2.6329,-2.629,-2.6286,-2.6302,-2.6302,-2.6301,-2.6232,-2.623,-2.6228,-2.6225,-2.62,-2.6201,-2.6202,-2.6254,0,0,-2.6205,-2.6206,0,0,0,0,0,0,0,0,-2.6313,-2.6313,-2.6296,-2.6293,-2.6289,-2.6268,-2.6289,-2.6285,-2.6233,-2.6253,-2.6227,-2.6224,-2.6225,-2.6224,-2.6224,-2.6252,-2.6251,-2.6205,-2.6206,-2.6207,-2.6207,0,0,0,0,0,0,0,-2.6314,-2.6314,-2.6318,-2.6296,-2.6291,-2.6275,-2.6271,-2.6288,-2.6252,-2.6251,-2.6246,-2.6243,-2.6222,-2.6223,-2.6223,-2.6251,-2.6205,-2.6206,-2.6207,-2.6207,-2.6321,-2.6323,0,0,0,0,0,0,-2.632,-2.6315,-2.6319,-2.6317,-2.6296,-2.6277,-2.6273,-2.6277,-2.6251,-2.6245,-2.6245,-2.624,-2.6222,-2.6221,-2.6221,-2.6279,-2.6207,-2.6208,-2.6208,-2.6319,-2.6321,-2.6324,0,0,0,0,0,0,-2.632,-2.6321,-2.632,-2.6315,-2.6313,-2.6279,-2.6285,-2.6277,-2.6278,-2.6247,-2.6241,-2.6252,-2.622,-2.622,-2.6246,-2.6278,-2.6208,-2.6209,-2.6316,-2.6319,-2.6323,-2.6396,0,0,0,0,0,0,-2.632,-2.6322,-2.634,-2.6316,-2.6314,-2.6345,-2.6286,-2.6279,-2.628,-2.6273,-2.6252,-2.6246,-2.6219,-2.6245,-2.6247,-2.6278,-2.621,-2.6313,-2.6317,-2.6322,-2.6391,-2.6402,-2.6412,0,0,0,0,0,-2.632,-2.6362,-2.6341,-2.6342,-2.6336,-2.6347,-2.6346,-2.6312,-2.6282,-2.6301,-2.6282,-2.6247,-2.6274,-2.6248,-2.625,-2.6282,-2.6311,-2.6316,-2.6321,-2.6386,-2.64,-2.6411,0,0,0,0,0,0,-2.639,-2.6358,-2.6335,-2.6369,-2.6361,-2.6335,-2.6357,-2.6328,-2.6328,-2.6322,-2.6281,-2.6277,-2.6309,-2.6298,-2.627,-2.633,-2.6287,-2.6293,-2.6336,-2.6348,-2.6358,-2.636,-2.6211,0,0,0,0,0,-2.641,-2.6421,-2.6392,-2.6426,-2.6423,-2.6391,-2.6394,-2.637,-2.636,-2.6356,-2.6339,-2.6331,-2.6337,-2.6343,-2.6347,-2.639,-2.6384,-2.6413,-2.6423,-2.6432,-2.6437,-2.6459,-2.6471,-2.6342,-2.6342,-2.6342,0,0,-2.645,-2.6434,-2.6443,-2.6439,-2.643,-2.6443,-2.6388,-2.6404,-2.6413,-2.6358,-2.6381,-2.6369,-2.6358,-2.6393,-2.6407,-2.6385,-2.6472,-2.6439,-2.6446,-2.6446,-2.6466,-2.6478,-2.6489,-2.6345,-2.6345,-2.6344,0,0,-2.653,-2.6519,-2.6545,-2.6538,-2.6525,-2.6504,-2.6511,-2.6489,-2.6478,-2.6501,-2.6461,-2.6472,-2.6484,-2.6478,-2.6476,-2.6557,-2.6525,-2.6559,-2.6612,-2.6634,-2.6645,-2.6653,-2.6681,-2.6692,-2.6565,-2.6565,-2.6565,0,-2.6581,-2.6598,-2.6563,-2.6581,-2.6581,-2.6533,-2.656,-2.6555,-2.6544,-2.6546,-2.6521,-2.6536,-2.6525,-2.6558,-2.6577,-2.6578,-2.6585,-2.656,-2.6646,-2.6654,-2.6662,-2.6688,-2.6699,-2.6569,-2.6569,-2.6569,-2.6568,0,-2.6662,-2.6675,-2.6698,-2.6689,-2.6692,-2.6715,-2.6684,-2.6691,-2.6667,-2.6649,-2.6674,-2.666,-2.666,-2.6667,-2.6644,-2.6697,-2.6683,-2.6653,-2.6608,-2.6679,-2.6703,-2.6713,-2.6575,-2.6574,-2.6573,-2.6572,0,0,-2.6782,-2.6755,-2.6764,-2.676,-2.6743,-2.6752,-2.6774,-2.6775,-2.6782,-2.6777,-2.6794,-2.6807,-2.6779,-2.6778,-2.6754,-2.6773,-2.6837,-2.6741,-2.674,-2.6758,-2.6895,-2.6917,-2.6929,-2.6817,-2.6819,-2.6821,-2.6896,0,-2.6856,-2.689,-2.686,-2.69,-2.6911,-2.6868,-2.6886,-2.6879,-2.6863,-2.6871,-2.6855,-2.6864,-2.6827,-2.6826,-2.6844,-2.6826,-2.6864,-2.682,-2.6832,-2.6833,-2.6834,-2.6941,-2.6964,-2.7035,-2.6905,-2.6906,-2.6908,0,-2.6946,-2.6946,-2.6987,-2.6968,-2.6972,-2.6989,-2.6988,-2.6997,-2.6988,-2.6976,-2.6975,-2.6946,-2.6967,-2.6925,-2.6953,-2.6924,-2.6927,-2.692,-2.6922,-2.692,-2.6873,-2.6941,-2.7057,-2.7067,-2.6922,-2.6921,-2.692,0,-2.7028,-2.7038,-2.7064,-2.7062,-2.7042,-2.7055,-2.7047,-2.7036,-2.7039,-2.7039,-2.7041,-2.7044,-2.7045,-2.7048,-2.7021,-2.6993,-2.7052,-2.7008,-2.7042,-2.7043,-2.7054,-2.7054,-2.7171,-2.706,-2.706,-2.706,-2.706,0,-2.7113,-2.7139,-2.7101,-2.7116,-2.7145,-2.7112,-2.7142,-2.713,-2.7121,-2.7134,-2.7097,-2.7111,-2.7075,-2.7085,-2.7064,-2.709,-2.7092,-2.7082,-2.7076,-2.7084,-2.7085,-2.7084,-2.7078,-2.7063,-2.7062,-2.7061,-2.7061,0,-2.7208,-2.7183,-2.7208,-2.7188,-2.7184,-2.7206,-2.7189,-2.7203,-2.7186,-2.7203,-2.7206,-2.7179,-2.7189,-2.7163,-2.7169,-2.7155,-2.7193,-2.718,-2.7195,-2.7191,-2.7226,-2.7223,-2.7346,-2.736,-2.7241,-2.7243,-2.7244,0,-2.7262,-2.7282,-2.7264,-2.727,-2.7265,-2.7275,-2.7278,-2.7247,-2.7252,-2.7245,-2.726,-2.7267,-2.7271,-2.7289,-2.727,-2.7275,-2.7261,-2.7304,-2.7261,-2.7269,-2.726,-2.7258,-2.726,-2.7312,-2.7313,-2.7315,-2.7315,0,-2.7361,-2.7349,-2.7354,-2.7357,-2.7362,-2.7362,-2.7359,-2.7367,-2.7334,-2.7342,-2.7351,-2.7354,-2.7361,-2.7368,-2.737,-2.7362,-2.7334,-2.733,-2.7337,-2.7345,-2.7353,-2.7348,-2.7218,-2.7326,-2.7325,-2.7324,-2.7324,-2.7323,-2.7437,-2.7452,-2.7442,-2.745,-2.7446,-2.7445,-2.7457,-2.7443,-2.745,-2.7453,-2.7435,-2.7449,-2.7441,-2.744,-2.7436,-2.7447,-2.7427,-2.7439,-2.7441,-2.7444,-2.745,-2.7353,-2.7447,-2.7447,-2.7446,-2.7446,-2.7446,0,-2.7533,-2.7525,-2.7533,-2.7531,-2.7538,-2.7512,-2.7508,-2.7515,-2.7528,-2.7523,-2.7528,-2.754,-2.7548,-2.7531,-2.7536,-2.7548,-2.7535,-2.755,-2.7548,-2.7547,-2.7467,-2.7459,-2.7561,-2.7561,-2.7561,-2.7561,-2.7561,-2.7561,-2.7583,-2.7608,-2.7595,-2.7618,-2.761,-2.7623,-2.7623,-2.7622,-2.7619,-2.7633,-2.764,-2.7629,-2.762,-2.7624,-2.7631,-2.7625,-2.7629,-2.7648,-2.7639,-2.7564,-2.7553,-2.7542,-2.7534,-2.7649,-2.765,-2.7717,-2.7718,-2.7718]},{"header":{"parameterUnit":"m.s-1","parameterCategory":1,"la1":30.2991,"la2":30.254,"lo1":-89.0895,"lo2":-89.0444,"dy":0.0017,"dx":0.0017,"nx":28,"ny":28,"refTime":"2023-10-17T09:00:00:Z","depth":0,"parameterNumber":3,"parameterNumberName":"V-component_of_WINDS"},"data":[0,0,0,0,0,0,0,0,0,0,0,0,0,0,0,0,0,0,0,0,0,0,0,0,0,0,0,0,0,0,0,0,0,0,0,0,0,0,0,0,0,0,0,0,0,0,0,0,0,0,0,0,0,0,0,0,0,0,1.9701,1.97,0,1.9651,1.965,1.9649,1.9684,1.9685,1.9687,1.9688,1.9632,1.9629,1.9626,0,0,0,0,0,0,0,0,0,0,0,0,0,1.9823,1.9821,1.9701,1.97,1.97,1.9651,1.965,1.9649,1.9683,1.9685,1.9687,1.9689,1.9633,1.963,1.9626,0,0,0,0,0,0,0,0,0,0,0,0,0,1.9771,1.982,1.9701,1.9711,1.9711,1.9651,1.965,1.9649,1.9683,1.9685,1.9688,1.969,1.9634,1.963,1.9626,1.9551,0,0,1.9612,1.961,0,0,0,0,0,0,0,0,1.9774,1.9766,1.971,1.971,1.971,1.9676,1.9673,1.9616,1.9682,1.9693,1.9688,1.9691,1.9644,1.9639,1.9625,1.9549,1.9546,1.9612,1.9609,1.9607,1.9606,0,0,0,0,0,0,0,1.9778,1.9769,1.9681,1.9709,1.9709,1.9717,1.9712,1.9662,1.9656,1.9693,1.9695,1.9689,1.9645,1.9629,1.9624,1.9545,1.9612,1.9608,1.9605,1.9603,1.9407,1.9404,0,0,0,0,0,0,1.9781,1.9772,1.9682,1.9679,1.9749,1.9713,1.9707,1.9684,1.9657,1.9655,1.9687,1.9691,1.9635,1.9629,1.9622,1.9533,1.9607,1.9603,1.96,1.9409,1.9406,1.9403,0,0,0,0,0,0,1.9783,1.9773,1.9685,1.9726,1.9716,1.9708,1.9682,1.9682,1.9666,1.9653,1.9651,1.9672,1.9637,1.9628,1.9569,1.9531,1.9601,1.9597,1.9412,1.9408,1.9405,1.9354,0,0,0,0,0,0,1.9787,1.9773,1.9745,1.9725,1.9713,1.9633,1.968,1.968,1.9659,1.9663,1.9638,1.9636,1.9638,1.9575,1.9565,1.9526,1.9593,1.9416,1.941,1.9406,1.9359,1.9349,1.9341,0,0,0,0,0,1.9791,1.9732,1.9744,1.9733,1.9679,1.9631,1.9624,1.9629,1.9656,1.9627,1.9619,1.9637,1.9538,1.9569,1.9557,1.9517,1.9418,1.9412,1.9406,1.9364,1.9351,1.9341,0,0,0,0,0,0,1.9746,1.973,1.9742,1.9676,1.9655,1.9637,1.9601,1.9616,1.9585,1.959,1.9596,1.959,1.9529,1.9517,1.9553,1.9444,1.9482,1.9473,1.9454,1.9442,1.9433,1.9436,1.959,0,0,0,0,0,1.9729,1.9693,1.968,1.9622,1.9612,1.9608,1.9588,1.9594,1.9571,1.9562,1.9549,1.9526,1.949,1.9466,1.9431,1.9359,1.9353,1.9326,1.9316,1.9309,1.9301,1.9261,1.9249,1.9384,1.9384,1.9384,0,0,1.9692,1.9679,1.9655,1.9613,1.9598,1.9559,1.96,1.9558,1.9529,1.9555,1.9499,1.9489,1.9463,1.9398,1.9368,1.9386,1.9263,1.9301,1.9295,1.9291,1.9254,1.9241,1.923,1.938,1.9381,1.9382,0,0,1.9605,1.9591,1.9542,1.9526,1.9503,1.9502,1.949,1.947,1.9465,1.941,1.9429,1.9394,1.9332,1.9313,1.9295,1.9203,1.9218,1.9192,1.9142,1.9104,1.9093,1.9084,1.905,1.9038,1.9185,1.9184,1.9184,0,1.9561,1.9505,1.9514,1.9471,1.9451,1.9476,1.9426,1.941,1.9375,1.9361,1.9383,1.9306,1.929,1.922,1.9198,1.9183,1.9169,1.9194,1.9094,1.9085,1.9076,1.9044,1.9032,1.9181,1.9182,1.9182,1.9182,0,1.9452,1.9413,1.9376,1.9345,1.9322,1.9275,1.9276,1.9251,1.926,1.9256,1.9199,1.9182,1.9145,1.9129,1.9136,1.906,1.9072,1.9094,1.9132,1.906,1.903,1.9018,1.9177,1.9178,1.9179,1.918,0,0,1.9333,1.9309,1.9295,1.9281,1.9259,1.9228,1.9183,1.9148,1.9127,1.9103,1.9064,1.9012,1.9033,1.9012,1.9018,1.8984,1.8912,1.901,1.901,1.8992,1.8826,1.8809,1.8795,1.8923,1.8921,1.8919,1.8828,0,1.9243,1.9165,1.9173,1.9098,1.9062,1.9086,1.9046,1.9027,1.9023,1.8991,1.8986,1.8949,1.8979,1.8967,1.8935,1.8928,1.8879,1.8935,1.8885,1.8883,1.8889,1.8779,1.876,1.8675,1.8817,1.8815,1.8813,0,1.9128,1.9103,1.9024,1.9008,1.8993,1.8957,1.8927,1.8897,1.8876,1.8875,1.8854,1.8866,1.8819,1.886,1.8795,1.8833,1.8814,1.8807,1.8804,1.8797,1.8842,1.8768,1.8648,1.8635,1.8795,1.8796,1.8798,0,1.9048,1.8994,1.894,1.8928,1.8908,1.8882,1.8872,1.8854,1.8833,1.8807,1.8793,1.8761,1.8742,1.8717,1.8719,1.8749,1.8653,1.8694,1.865,1.865,1.8627,1.8628,1.85,1.8617,1.8617,1.8618,1.8618,0,1.8946,1.8897,1.8904,1.887,1.8816,1.8826,1.8772,1.8765,1.8749,1.8714,1.8733,1.87,1.8706,1.8673,1.8674,1.862,1.8612,1.8609,1.861,1.8606,1.8606,1.8592,1.8597,1.8614,1.8615,1.8616,1.8616,0,1.8846,1.8848,1.8791,1.8778,1.8774,1.8734,1.8722,1.869,1.8689,1.8645,1.8635,1.8631,1.8593,1.8594,1.855,1.8551,1.8484,1.8493,1.8492,1.8493,1.8448,1.8452,1.8305,1.8286,1.8417,1.8416,1.8415,0,1.878,1.8743,1.8726,1.8705,1.8694,1.866,1.864,1.8648,1.8626,1.8601,1.8572,1.8536,1.8507,1.8445,1.8438,1.8404,1.8411,1.8362,1.8406,1.8404,1.8409,1.841,1.8406,1.8353,1.8351,1.835,1.8349,0,1.8662,1.8666,1.8637,1.8607,1.8583,1.856,1.8539,1.8521,1.8527,1.8501,1.8463,1.8442,1.8398,1.8361,1.833,1.8319,1.8334,1.8336,1.8324,1.8319,1.8319,1.8317,1.8466,1.8339,1.834,1.834,1.8341,1.8341,1.8576,1.8545,1.8529,1.8495,1.8481,1.8462,1.8431,1.8427,1.8396,1.8362,1.8369,1.8327,1.8308,1.8267,1.8253,1.822,1.8237,1.8219,1.8214,1.8209,1.8204,1.8327,1.8214,1.8214,1.8215,1.8215,1.8215,0,1.8459,1.845,1.842,1.8391,1.8365,1.8385,1.8363,1.8339,1.8302,1.8284,1.8256,1.8213,1.8178,1.8169,1.8136,1.811,1.8117,1.8101,1.8102,1.8099,1.8191,1.8205,1.8097,1.8097,1.8097,1.8097,1.8097,1.8097,1.8395,1.8342,1.8344,1.8285,1.8277,1.8236,1.8222,1.8204,1.819,1.8141,1.8113,1.8109,1.8094,1.806,1.8029,1.8027,1.8013,1.7994,1.7995,1.8081,1.8093,1.8104,1.8116,1.7992,1.7991,1.7906,1.7905,1.7904]}]]